DateTimeUTC,F1_A11,F1_S11,BsB_S11,BsG_S11,BsR_S11,BbsB_S11,BbsG_S11,BbsR_S11,BaB_A11,BaG_A11,BaR_A11,Tu_S11,T_S11,Uu_S11,U_S11,P_S11,T1_A11
2021-05-26T11:00:00Z,00000200,20000000,,,,,,,0000.41,-000.15,-000.18,16.8,23.3,11.1,07.4,0674.2,30.8
2021-05-26T11:01:00Z,00000200,20000000,,,,,,,-000.11,0000.06,0000.55,16.8,23.3,11.1,07.4,0674.2,30.8
2021-05-26T11:02:00Z,00000200,20000000,,,,,,,0000.23,0000.08,-000.05,16.8,23.3,11.1,07.4,0674.2,30.8
2021-05-26T11:03:00Z,00000200,60000000,,,,,,,0000.44,0000.10,0000.51,16.8,23.3,11.1,07.4,0674.3,30.8
2021-05-26T11:04:00Z,00000200,40000000,0003.73,0002.53,0001.65,0000.12,0000.12,0000.49,0000.00,0000.55,0000.16,16.9,23.1,11.1,07.6,0675.2,30.8
2021-05-26T11:05:00Z,00000200,00000000,0004.12,0002.65,0001.79,0000.42,0000.58,0000.37,-000.01,-000.16,0000.09,17.0,23.1,11.1,07.6,0675.2,30.8
2021-05-26T11:06:00Z,00000200,00000000,0003.12,0002.80,0001.30,0000.58,0000.63,0000.14,0000.08,-000.24,0000.50,17.0,23.1,11.0,07.5,0675.3,30.8
2021-05-26T11:07:00Z,00000200,00000000,0003.84,0002.77,0001.60,0000.37,0000.43,0000.68,0000.14,0000.27,-000.15,17.0,23.1,11.0,07.5,0675.2,30.8
2021-05-26T11:08:00Z,00000200,00000000,0003.85,0002.90,0001.77,0000.28,0000.18,0000.16,-000.09,0000.48,0000.59,17.0,23.1,10.9,07.5,0675.3,30.8
2021-05-26T11:09:00Z,00000200,00000000,0003.86,0002.94,0001.86,0000.24,0000.14,0000.20,0000.30,0000.11,0000.34,17.0,23.1,11.0,07.5,0675.2,30.8
2021-05-26T11:10:00Z,00000200,00000000,0004.19,0002.79,0001.51,0000.52,0000.24,0000.56,0000.20,0000.45,0000.16,17.0,23.1,11.1,07.6,0675.4,30.8
2021-05-26T11:11:00Z,00000200,00000000,0004.07,0002.91,0001.79,-000.01,0000.23,0000.30,0000.21,0000.16,0000.55,17.0,23.1,11.0,07.6,0675.3,30.8
2021-05-26T11:12:00Z,00000200,00000000,0004.23,0002.83,0001.91,0000.28,0000.29,0000.32,0000.25,0000.22,0000.24,17.0,23.1,11.2,07.6,0675.6,30.8
2021-05-26T11:13:00Z,00000200,00000000,0003.59,0003.08,0001.82,0001.08,0000.26,0000.33,-000.32,0000.15,0000.35,17.0,23.1,11.1,07.6,0675.5,30.8
2021-05-26T11:14:00Z,00000200,00000000,0004.28,0003.36,0001.97,0000.98,0000.53,0000.37,0000.67,0000.59,0000.66,17.0,23.1,11.0,07.6,0675.4,30.8
2021-05-26T11:15:00Z,00000200,00000000,0004.14,0003.10,0002.09,0000.10,0000.40,0000.47,0000.25,0000.24,0000.28,17.0,23.1,11.1,07.6,0675.3,30.8
2021-05-26T11:16:00Z,00000200,00000000,0004.63,0003.31,0002.14,0000.05,0000.31,0000.51,0000.02,0000.05,0000.64,17.0,23.1,11.3,07.7,0675.4,30.8
2021-05-26T11:17:00Z,00000200,00000000,0004.97,0003.65,0002.17,0000.41,0000.49,0000.50,-000.02,-000.11,0000.04,17.0,23.1,11.1,07.6,0675.4,30.8
2021-05-26T11:18:00Z,00000200,00000000,0005.05,0004.03,0002.83,0000.80,0000.73,0000.29,0000.25,0000.50,0000.59,17.0,23.1,11.0,07.6,0675.5,30.8
2021-05-26T11:19:00Z,00000200,00000000,0005.10,0004.01,0002.41,0000.51,0000.61,0000.28,0000.17,-000.19,-000.36,17.0,23.1,10.9,07.5,0675.2,30.8
2021-05-26T11:20:00Z,00000200,00000000,0005.25,0003.80,0002.33,0000.54,0000.70,0000.41,-000.15,0000.49,0000.89,17.0,23.1,10.8,07.4,0675.4,30.8
2021-05-26T11:21:00Z,00000200,00000000,0005.19,0004.04,0002.23,0000.63,0000.48,0000.44,0000.51,0000.45,0000.34,17.0,23.1,10.9,07.5,0675.5,30.8
2021-05-26T11:22:00Z,00000200,00000000,0005.40,0003.87,0002.14,0000.54,0000.30,0000.30,0000.60,0000.47,0000.79,17.0,23.1,11.1,07.6,0675.4,30.8
2021-05-26T11:23:00Z,00000200,00000000,0005.35,0004.14,0002.57,0000.31,0000.35,0000.48,0000.07,0000.40,0000.09,17.0,23.1,11.2,07.7,0675.5,30.8
2021-05-26T11:24:00Z,00000200,00000000,0005.28,0004.01,0002.52,0000.40,0000.43,0000.21,0000.50,0000.07,0000.60,17.0,23.1,11.2,07.7,0675.6,30.8
2021-05-26T11:25:00Z,00000200,00000000,0006.07,0004.39,0003.00,0000.01,0000.51,0000.60,0000.09,0000.60,0000.50,17.0,23.1,11.2,07.7,0675.4,30.8
2021-05-26T11:26:00Z,00000200,00000000,0006.98,0004.72,0003.49,0001.26,0000.42,0000.34,0000.15,0000.28,0000.56,17.0,23.1,11.3,07.8,0675.4,30.8
2021-05-26T11:27:00Z,00000200,00000000,0006.44,0004.91,0002.91,0000.78,0000.39,0000.34,0000.46,0000.18,0000.50,17.0,23.1,11.2,07.7,0675.5,30.8
2021-05-26T11:28:00Z,00000200,00000000,0006.49,0004.47,0003.33,0000.21,0000.89,0000.48,-000.52,-000.01,0000.08,17.0,23.1,11.1,07.7,0675.5,30.8
2021-05-26T11:29:00Z,00000200,00000000,0006.84,0005.00,0003.23,0000.30,0000.40,0000.62,0000.10,-000.05,-000.08,17.1,23.1,11.1,07.6,0675.5,30.8
2021-05-26T11:30:00Z,00000200,00000000,0006.83,0005.01,0003.71,0000.81,0000.69,0000.37,0000.32,0000.58,0000.53,17.1,23.1,10.8,07.5,0675.6,30.8
2021-05-26T11:31:00Z,00000200,00000000,0007.13,0005.69,0003.43,0000.49,0000.61,0000.33,0000.09,-000.10,0000.64,17.1,23.1,10.9,07.5,0675.6,30.8
2021-05-26T11:32:00Z,00000200,00000000,0007.43,0005.23,0003.87,0000.43,0000.59,0000.61,0000.07,0000.34,0000.52,17.1,23.1,10.9,07.5,0675.4,30.8
2021-05-26T11:33:00Z,00000200,00000000,0007.86,0005.87,0003.48,0000.33,0000.65,0000.48,0000.73,0000.49,0000.62,17.1,23.1,10.9,07.5,0675.5,30.8
2021-05-26T11:34:00Z,00000200,00000000,0007.30,0005.78,0003.70,0001.04,0000.67,0000.47,0000.20,0000.42,0000.81,17.1,23.1,10.9,07.5,0675.7,30.8
2021-05-26T11:35:00Z,00000200,00000000,0007.86,0005.96,0003.54,0000.61,0000.56,0000.41,0000.12,0000.39,0000.08,17.1,23.1,11.0,07.6,0675.7,30.8
2021-05-26T11:36:00Z,00000200,00000000,0007.53,0005.60,0003.73,0000.79,0000.55,0000.25,0000.06,-000.05,0000.91,17.1,23.1,11.1,07.7,0675.5,30.8
2021-05-26T11:37:00Z,00000200,00000000,0007.91,0005.46,0003.83,0000.88,0000.34,0000.33,0000.52,0000.74,0000.69,17.1,23.1,11.2,07.7,0675.5,30.8
2021-05-26T11:38:00Z,00000200,00000000,0007.09,0005.95,0003.93,0000.68,0000.50,0000.63,0000.07,-000.22,0000.04,17.1,23.1,11.2,07.7,0675.7,30.8
2021-05-26T11:39:00Z,00000200,00000000,0007.59,0005.64,0003.66,0000.83,0000.53,0000.36,-000.16,0000.46,0000.12,17.1,23.1,11.1,07.6,0675.5,30.8
2021-05-26T11:40:00Z,00000200,00000000,0008.26,0005.95,0003.65,0000.50,0000.63,0000.26,-000.35,0000.04,0000.40,17.1,23.1,11.0,07.6,0675.4,30.8
2021-05-26T11:41:00Z,00000200,00000000,0007.93,0005.92,0004.13,0001.00,0000.85,0000.51,0000.56,-000.00,0000.66,17.1,23.1,10.9,07.5,0675.6,30.8
2021-05-26T11:42:00Z,00000200,00000000,0007.57,0006.51,0004.08,0000.28,0000.54,0000.51,0000.52,0000.61,0000.51,17.1,23.1,10.9,07.5,0675.5,30.8
2021-05-26T11:43:00Z,00000200,00000000,0008.62,0006.73,0004.49,0000.38,0000.75,0000.50,0000.04,0000.46,0000.63,17.1,23.1,11.0,07.6,0675.3,30.8
2021-05-26T11:44:00Z,00000200,00000000,0008.69,0007.13,0004.76,0000.54,0000.92,0000.53,0000.05,0000.46,0000.51,17.1,23.1,10.9,07.5,0675.2,30.8
2021-05-26T11:45:00Z,00000200,00000000,0008.98,0006.93,0004.53,0001.03,0000.75,0000.44,0000.44,-000.13,0000.55,17.1,23.1,11.0,07.6,0675.4,30.8
2021-05-26T11:46:00Z,00000200,00000000,0009.23,0007.23,0004.22,0000.99,0000.82,0000.53,0000.04,0000.52,0000.59,17.1,23.1,11.0,07.5,0675.6,30.8
2021-05-26T11:47:00Z,00000200,00000000,0008.64,0006.85,0004.59,0000.75,0000.58,0000.59,0000.14,0000.43,0000.52,17.1,23.1,11.0,07.6,0675.4,30.8
2021-05-26T11:48:00Z,00000200,00000000,0009.45,0007.07,0004.52,0000.75,0000.55,0000.54,0000.46,0000.22,0000.49,17.1,23.1,10.9,07.5,0675.5,30.8
2021-05-26T11:49:00Z,00000200,00000000,0008.67,0007.19,0004.54,0000.99,0000.72,0000.54,0000.10,0000.41,0000.79,17.1,23.1,11.2,07.7,0675.6,30.8
2021-05-26T11:50:00Z,00000200,00000000,0008.74,0006.82,0004.50,0000.81,0000.89,0000.93,0000.05,0000.13,0000.51,17.1,23.1,11.1,07.6,0675.6,30.8
2021-05-26T11:51:00Z,00000200,00000000,0009.15,0006.98,0004.88,0000.68,0000.63,0000.58,0000.26,0000.30,0000.54,17.1,23.1,11.0,07.6,0675.6,30.8
2021-05-26T11:52:00Z,00000200,00000000,0009.77,0006.96,0004.53,0000.50,0000.59,0000.58,0000.44,0000.77,0001.02,17.1,23.1,11.1,07.6,0675.8,30.8
2021-05-26T11:53:00Z,00000200,00000000,0007.90,0006.79,0004.75,0001.03,0000.79,0000.50,0000.05,-000.03,0000.03,17.1,23.1,11.2,07.7,0675.7,30.8
2021-05-26T11:54:00Z,00000200,00000000,0009.42,0006.73,0004.41,0001.22,0000.60,0000.58,-000.02,0000.06,0000.45,17.1,23.1,11.1,07.6,0675.5,30.8
2021-05-26T11:55:00Z,00000200,00000000,0009.59,0007.55,0004.92,0000.69,0000.77,0000.47,0000.39,0000.40,0000.40,17.1,23.1,11.0,07.6,0675.6,30.8
2021-05-26T11:56:00Z,00000200,00000000,0009.56,0007.17,0004.78,0000.77,0000.75,0000.67,0000.41,0000.51,0000.81,17.1,23.1,11.1,07.7,0675.7,30.8
2021-05-26T11:57:00Z,00000200,40000000,,,,,,,0000.02,0000.41,0000.18,17.1,23.2,11.8,08.1,0675.5,30.8
2021-05-26T11:58:00Z,00000200,60000000,,,,,,,-000.18,-000.30,0000.13,17.0,23.3,11.3,07.7,0674.6,30.8
2021-05-26T11:59:00Z,00000200,20000000,,,,,,,-000.12,-000.05,0000.19,17.0,23.4,11.1,07.4,0674.6,30.8
